Tracking 25710 objects as of 5-Jul-2022
HD Live streaming from Space Station
objects crossing your sky now

FENGYUN 1C DEB

Track FENGYUN 1C DEB now!
10-day predictions


NORAD ID: 31899
Int'l Code: 1999-025CLA
Perigee: 835.7 km
Apogee: 1,135.2 km
Inclination: 102.1 °
Period: 104.7 minutes
Semi major axis: 7356 km
RCS: 0.0071 m2 (small)
Launch date: May 10, 1999
Source: People's Republic of China (PRC)
Launch site: Taiyaun Space Center, China (TSC)

Note: This is SATELLITE DEBRIS
aabbcc
Your satellite tracking list
Your tracking list is empty




NASA's NSSDC Master Catalog

Two Line Element Set (TLE):
1 31899U 99025CLA 22185.40589244  .00001177  00000-0  11019-2 0  9999
2 31899 102.0750 249.1567 0203566 265.6248  92.1610 13.75938253502277
Source of the keplerian elements: AFSPC